Location: Unspecified
(0.0000°N, 0.0000°E)
Time: 13:41:50
(UTC+00:00)

Transit 2A - Pass Details

Date: 25 November 2019
Orbit: 602 x 957 km, 66.7° (Epoch: 08 December)

Event Time Altitude Azimuth Distance (km) Brightness Sun altitude
Rises 09:57:21 0° 225° (SW) 3,478 9.4 56.1°
Reaches altitude 10° 10:00:30 10° 240° (WSW) 2,477 8.6 56.8°
Maximum altitude 10:04:43 21° 288° (WNW) 1,728 7.8 57.5°
Drops below altitude 10° 10:08:39 10° 337° (NNW) 2,289 8.3 58.3°
Sets 10:11:27 0° 353° (N) 3,142 8.9 58.8°
